Kezdőlap
METAR-TAF:

METAR-TAF

Repülőterek :

Audubon County Airport

Audubon, Iowa, Amerikai Egyesült Államok

földrajzi szélesség: 41-42-04N, földrajzi hosszúság: 094-55-13W, magasság: 392 m

Jelenlegi meteorológiai megfigyelések

A jelentés 21 perccel ezelõtt készült, 17:15 UTC
Déli szél 9 kt
Hőmérséklet 5°C
Páratartalom 56%
Légköri nyomás 1021 hPa
Látótávolság: 16.1 km
Szórványos felhőzet 3700 lábon
Szórványos felhőzet 5000 lábon
Szórványos felhőzet 7500 lábon

METAR: KADU 081715Z AUTO 19009KT 10SM SCT037 SCT050 SCT075 05/M03 A3014 RMK AO2

Idő: 11:36 (17:36 UTC)


TAF: hiányzik

Meteorológiai megfigyelések és előrejelzések több, mint 4000 repülőtéren (METAR és TAF jelentéseket).

A térképen piros és sárga pontok jelzik az elérhető meteorológiai állomásokat.

Mozgassa az egeret a pont fölött, hogy megjelenjen az állomás neve.

Azután kattintson az időjárási megfigyelések és előrejelzések megtekintéséhez.

A térkép megváltoztatása: kattintson a fekete keresztel jelölt zöld gombra ráközelítéshez, a vonallal jelölt zöld gombra távolításhoz, vagy a zöld nyilakra a szomszédos térképek eléréséhez.


METAR-TAF: